Location: Unspecified
(49.9820°N, 20.4363°E)
Time: 09:39:40
(UTC+02:00)

ISS - Pass Details

Date: 20 July 2018
Orbit: 402 x 408 km, 51.6° (Epoch: 23 July)

Event Time Altitude Azimuth Distance (km) Brightness Sun altitude
Rises 22:10:11 0° 227° (SW) 2,313 -0.1 -11.6°
Reaches altitude 10° 22:12:20 10° 219° (SW) 1,457 -1.2 -11.8°
Maximum altitude 22:15:22 37° 150° (SSE) 648 -3.3 -12.1°
Drops below altitude 10° 22:18:27 10° 81° (E) 1,468 -1.3 -12.4°
Sets 22:20:37 0° 73° (ENE) 2,332 -0.1 -12.6°
